Home > Time Zones > World Clock > Weather > China > Hefei > Past weeks

Flag for China Weather past 2 weeks in Hefei, Anhui, China

Now
88 °F

Scattered clouds.


Feels Like: 98 °F
Forecast: 75 / 90 °F
Wind: 1 mph from North

Location: Hefei Airport

Current Time: Jul 28, 2014 at 5:36:27 PM

Latest Report: Jul 28, 2014 at 5:00 PM


Visibility: 3 mi

Pressure: 29.65 "Hg

Humidity: 66%

Dew point: 75 °F

Location of HefeiLocation

Historic Weather in Hefei — Graph

°F

Hefei temperature yesterday

Maximum temperature yesterday: 88 °F (at 4:00 PM)
Minimum temperature yesterday: 77 °F (at 4:00 AM)
Average temperature yesterday: 81 °F

Past Weeks' High & Low Weather Summary

 TemperatureHumidityPressure
High100 °F (Jul 21, 3:00 PM)100% (Jul 14, 3:00 AM)29.89 "Hg (Jul 14, 3:00 AM)
Low72 °F (Jul 14, 3:00 AM)45% (Jul 21, 3:00 PM)29.39 "Hg (Jul 24, 5:00 PM)
Average83 °F83%29.71 "Hg
* Reported Jul 13 4:00 PM — Jul 28 4:00 PM, Hefei, Weather by CustomWeather, © 2014

Note: Actual official high and low records may vary slightly from our data, if they occured in-between our weather recording intervals... More about our weather records

Advertising

Hefei weather history for previous 24 hours

 ConditionsComfort  
Time TempWeatherWind HumidityBarometerVisibility
4:00 PM
Jul 28
88 °FHaze.3 mph66%29.65 "Hg3 mi
3:00 PM88 °FScattered clouds.3 mph66%29.68 "Hg2 mi
2:00 PM88 °FScattered clouds.3 mph66%29.71 "Hg2 mi
1:00 PM86 °FFog.3 mph75%29.71 "Hg2 mi
12:00 PM84 °FFog.6 mph79%29.74 "Hg2 mi
11:00 AM82 °FFog.6 mph84%29.74 "Hg2 mi
10:00 AM82 °FFog.3 mph84%29.77 "Hg1 mi
9:00 AM79 °FFog.3 mph89%29.77 "Hg1 mi
8:00 AM79 °FFog.3 mph89%29.74 "Hg1 mi
7:00 AM77 °FFog.3 mph100%29.74 "Hg1 mi
6:00 AM77 °FFog.1 mph94%29.74 "Hg1 mi
5:00 AM75 °FFog.3 mph100%29.71 "Hg1 mi
4:00 AM75 °FFog.3 mph100%29.71 "Hg1 mi
3:00 AM75 °FFog.3 mph100%29.74 "Hg1 mi
2:00 AM75 °FFog.1 mph100%29.74 "Hg1 mi
1:00 AM75 °FFog.1 mph100%29.74 "Hg0 mi
12:00 AM77 °FFog.3 mph94%29.74 "Hg1 mi
11:00 PM
Jul 27
77 °FFog.3 mph100%29.77 "Hg1 mi
10:00 PM79 °FFog.6 mph94%29.77 "Hg2 mi
9:00 PM79 °FFog.6 mph94%29.77 "Hg2 mi
8:00 PM81 °FFog.6 mph89%29.74 "Hg3 mi
7:00 PM81 °FFog.6 mph89%29.74 "Hg2 mi
6:00 PM84 °FFog.8 mph79%29.74 "Hg2 mi
5:00 PM86 °FFog.3 mph75%29.74 "Hg2 mi
Weather by CustomWeather, © 2014

See weather overviewHow to use our weather pages